Regional Weather Roundup
Issued by NWS Albany, NY

Home | Current Version | Previous Version | Text Only | Print | Product List | Glossary On
Versions: 1 2 3 4 5 6 7 8 9 10 11 12 13 14 15 16 17 18 19 20 21 22 23 24 25 26 27 28 29 30 31 32 33 34 35 36 37 38 39 40 41 42 43 44 45 46 47 48 49 50
000
ASUS41 KALY 111510
RWRALY

NEW YORK STATE HOURLY WEATHER ROUNDUP
NATIONAL WEATHER SERVICE ALBANY NY
1000 AM EST MON DEC 11 2017

NOTE: "FAIR" INDICATES FEW OR NO CLOUDS BELOW 12,000 FEET WITH NO
SIGNIFICANT WEATHER AND/OR NO OBSTRUCTIONS TO VISIBILITY.

NYZ032-033-038>043-046>054-057>066-NYZ062>081-082-084-111600-
EAST


CITY           SKY/WX    TMP DP  RH WIND       PRES   REMARKS
ALBANY         PTSUNNY   33  21  61 SW5       29.99R WCI  29
GLENS FALLS    CLOUDY    33  22  63 W7        29.96R WCI  27
POUGHKEEPSIE   SUNNY     34  21  59 W10       30.01R WCI  26
NEWBURGH       SUNNY     32  25  74 W14       30.01R WCI  22
MONTGOMERY     MOSUNNY   34  21  59 VRB6      29.99S WCI  29
WHITE PLAINS   MOSUNNY   34  23  64 W12       30.00S WCI  25
ISLIP          MOSUNNY   37  27  67 W10       30.02F WCI  30
NEW YORK CITY  MOSUNNY   38  23  55 W15       30.03S WCI  29
CENTRAL PARK   SUNNY     36  26  67 W8        30.05S WCI  30
$$

NYZ005>009-017-018-044>046-055-056-111600-
CENTRAL


CITY           SKY/WX    TMP DP  RH WIND       PRES   REMARKS
FULTON         LGT SNOW  25  18  74 N10       30.04R WCI  15
SYRACUSE       LGT SNOW  24  21  88 NW7       30.04R FOG     WCI  16
ROME           LGT SNOW  25  21  85 NW5       30.03R FOG     WCI  19
ELMIRA         LGT SNOW  30  27  88 SW3       30.00R FOG
BINGHAMTON     LGT SNOW  26  21  81 W10       29.94R WCI  16
$$

NYZ026>034-041>043-087-111600-
NORTH


CITY           SKY/WX    TMP DP  RH WIND       PRES   REMARKS
WATERTOWN      CLOUDY    18  11  74 NE6       30.06R WCI  10
FORT DRUM      NOT AVBL
OGDENSBURG     FAIR      17   8  69 N5        30.06R WCI  10
MASSENA        SUNNY     16   6  65 NW9       30.08R WCI   4
SARANAC LAKE   CLOUDY    15  11  83 W6        29.89R FOG     WCI   6
PLATTSBURGH    CLOUDY    20  12  71 NE13      30.01R WCI   7
$$

NYZ001>004-010>016-019>021-085-111600-
WEST


CITY           SKY/WX    TMP DP  RH WIND       PRES   REMARKS
NIAGARA FALLS  FLURRIES  28  20  71 N7        30.02S WCI  21
BUFFALO        FLURRIES  25  20  81 SE5       30.02R WCI  19
DUNKIRK        FLURRIES  28  20  71 NE3       30.03R
JAMESTOWN      FLURRIES  25  21  85 SW6       29.97R WCI  18
WELLSVILLE     LGT SNOW  26  20  77 N5        29.95R WCI  20
ROCHESTER      FLURRIES  25  20  81 N6        30.04R WCI  18
PENN YAN       LGT SNOW  28  23  81 NW6       30.00R WCI  22
$$

             KEY
       WCI = WIND CHILL INDEX
       VSB = VISIBILITY
       HX  = HEAT INDEX
$$



USA.gov is the U.S. government's official web portal to all federal, state and local government web resources and services.